When you browse on this site, cookies collect data to enhance your experience and personalize the content and advertising you see.
Visit our Privacy Policy to learn more. By continuing to use the site, you agree to this use of cookies and data.
  • In Österreich
  • Länderverzeichnis
  • Für 7 Tage
  • Wassertemperatur
  • Satellitenkarten
  • Wetterkarte
  • News
  • Widgets
  • user-avatar
    Anmelden

    Stündliche Wetter Chyzhychi

    Heute, 17 Februar, Sonntag

    Zeit Temperatur Niederschläge Wind Luftdruck Luftfeuchtigkeit
    00:00 +2°C° 0 mm 2 m/S 741 mmHg 87%
    01:00 0°C° 0 mm 3 m/S 741 mmHg 86%
    02:00 0°C° 0 mm 3 m/S 741 mmHg 85%
    03:00 0°C° 0 mm 3 m/S 740 mmHg 85%
    04:00 0°C° 0 mm 3 m/S 740 mmHg 84%
    05:00 0°C° 0 mm 3 m/S 740 mmHg 84%
    06:00 0°C° 0 mm 3 m/S 740 mmHg 83%
    07:00 0°C° 0 mm 3 m/S 740 mmHg 83%
    08:00 0°C° 0 mm 3 m/S 740 mmHg 82%
    09:00 +1°C° 0 mm 4 m/S 740 mmHg 75%
    10:00 +3°C° 0 mm 5 m/S 740 mmHg 69%
    11:00 +6°C° 0 mm 5 m/S 740 mmHg 62%
    12:00 +7°C° 0 mm 5 m/S 740 mmHg 60%
    13:00 +8°C° 0 mm 6 m/S 739 mmHg 58%
    14:00 +9°C° 0 mm 6 m/S 739 mmHg 55%
    15:00 +8°C° 0 mm 5 m/S 739 mmHg 59%
    16:00 +7°C° 0 mm 4 m/S 739 mmHg 63%
    17:00 +6°C° 0 mm 4 m/S 739 mmHg 67%
    18:00 +5°C° 0 mm 4 m/S 739 mmHg 72%
    19:00 +4°C° 0 mm 3 m/S 739 mmHg 76%
    20:00 +3°C° 0 mm 3 m/S 739 mmHg 80%
    21:00 +2°C° 0 mm 3 m/S 739 mmHg 80%
    22:00 +2°C° 0 mm 3 m/S 739 mmHg 80%
    23:00 +1°C° 0 mm 3 m/S 739 mmHg 81%

    Morgen, 18 Februar, Montag

    Zeit Temperatur Niederschläge Wind Luftdruck Luftfeuchtigkeit
    00:00 +1°C° 0 mm 3 m/S 739 mmHg 81%
    01:00 +1°C° 0 mm 3 m/S 739 mmHg 82%
    02:00 +2°C° 0 mm 2 m/S 739 mmHg 83%
    03:00 +1°C° 0 mm 2 m/S 739 mmHg 84%
    04:00 +1°C° 0 mm 2 m/S 739 mmHg 85%
    05:00 +1°C° 0 mm 2 m/S 739 mmHg 86%
    06:00 +1°C° 0 mm 2 m/S 739 mmHg 86%
    07:00 +2°C° 0 mm 1 m/S 739 mmHg 87%
    08:00 +2°C° 0 mm 1 m/S 739 mmHg 87%
    09:00 +3°C° 0 mm 1 m/S 739 mmHg 83%
    10:00 +4°C° 0 mm 1 m/S 739 mmHg 79%
    11:00 +6°C° 0 mm 1 m/S 739 mmHg 75%
    12:00 +7°C° 0 mm 1 m/S 739 mmHg 72%
    13:00 +7°C° 0 mm 1 m/S 739 mmHg 70%
    14:00 +7°C° 0 mm 0 m/S 739 mmHg 68%
    15:00 +8°C° 0 mm 1 m/S 739 mmHg 71%
    16:00 +7°C° 0 mm 1 m/S 739 mmHg 74%
    17:00 +7°C° 0 mm 1 m/S 738 mmHg 77%
    18:00 +5°C° 0 mm 2 m/S 738 mmHg 82%
    19:00 +4°C° 0 mm 2 m/S 738 mmHg 86%
    20:00 +3°C° 0 mm 2 m/S 739 mmHg 91%
    21:00 +2°C° 0 mm 2 m/S 739 mmHg 92%
    22:00 +2°C° 0 mm 2 m/S 739 mmHg 93%
    23:00 +2°C° 0 mm 2 m/S 739 mmHg 94%

    übermorgen, 19 Februar, Dienstag

    Zeit Temperatur Niederschläge Wind Luftdruck Luftfeuchtigkeit
    00:00 +1°C° 0 mm 2 m/S 738 mmHg 94%
    01:00 0°C° 0 mm 3 m/S 738 mmHg 95%
    02:00 0°C° 0 mm 3 m/S 738 mmHg 95%
    03:00 0°C° 0 mm 3 m/S 738 mmHg 95%
    04:00 0°C° 0 mm 3 m/S 738 mmHg 95%
    05:00 -1°C° 0 mm 3 m/S 738 mmHg 96%
    06:00 -1°C° 0 mm 3 m/S 737 mmHg 95%
    07:00 -1°C° 0 mm 3 m/S 737 mmHg 95%
    08:00 -1°C° 0 mm 3 m/S 737 mmHg 94%
    09:00 +1°C° 0 mm 3 m/S 737 mmHg 88%
    10:00 +2°C° 0 mm 3 m/S 737 mmHg 81%
    11:00 +4°C° 0 mm 3 m/S 737 mmHg 75%
    12:00 +5°C° 0 mm 3 m/S 737 mmHg 70%
    13:00 +7°C° 0 mm 2 m/S 737 mmHg 65%
    14:00 +8°C° 0 mm 2 m/S 736 mmHg 61%
    15:00 +8°C° 0 mm 2 m/S 736 mmHg 64%
    16:00 +8°C° 0 mm 2 m/S 736 mmHg 68%
    17:00 +7°C° 0 mm 2 m/S 735 mmHg 72%
    18:00 +6°C° 0 mm 2 m/S 735 mmHg 75%
    19:00 +5°C° 0 mm 2 m/S 735 mmHg 79%
    20:00 +4°C° 0 mm 2 m/S 735 mmHg 83%
    21:00 +3°C° 0 mm 2 m/S 735 mmHg 83%
    22:00 +3°C° 0 mm 2 m/S 735 mmHg 82%
    23:00 +2°C° 0 mm 2 m/S 735 mmHg 82%

    20 Februar, Mittwoch

    Zeit Temperatur Niederschläge Wind Luftdruck Luftfeuchtigkeit
    00:00 +2°C° 0 mm 2 m/S 735 mmHg 83%
    01:00 +2°C° 0 mm 2 m/S 735 mmHg 83%
    02:00 +1°C° 0 mm 3 m/S 735 mmHg 83%
    03:00 +1°C° 0 mm 3 m/S 735 mmHg 84%
    04:00 +1°C° 0 mm 3 m/S 735 mmHg 85%
    05:00 +1°C° 0 mm 3 m/S 735 mmHg 86%
    06:00 +1°C° 0 mm 3 m/S 736 mmHg 86%
    07:00 0°C° 0 mm 4 m/S 736 mmHg 87%
    08:00 0°C° 0 mm 4 m/S 736 mmHg 87%
    09:00 +1°C° 0 mm 4 m/S 736 mmHg 86%
    10:00 +2°C° 0 mm 5 m/S 737 mmHg 85%
    11:00 +2°C° 0 mm 5 m/S 737 mmHg 84%
    12:00 +3°C° 0 mm 5 m/S 737 mmHg 79%
    13:00 +5°C° 0 mm 5 m/S 737 mmHg 74%
    14:00 +5°C° 0 mm 5 m/S 737 mmHg 69%
    15:00 +5°C° 0 mm 5 m/S 737 mmHg 70%
    16:00 +5°C° 0 mm 4 m/S 737 mmHg 72%
    17:00 +5°C° 0 mm 4 m/S 737 mmHg 73%
    18:00 +4°C° 0 mm 4 m/S 737 mmHg 77%
    19:00 +3°C° 0 mm 4 m/S 737 mmHg 81%
    20:00 +2°C° 0 mm 3 m/S 737 mmHg 85%
    21:00 +1°C° 0 mm 4 m/S 738 mmHg 85%
    22:00 +1°C° 0 mm 4 m/S 738 mmHg 86%
    23:00 +1°C° 0 mm 4 m/S 738 mmHg 86%

    21 Februar, Donnerstag

    Zeit Temperatur Niederschläge Wind Luftdruck Luftfeuchtigkeit
    00:00 +1°C° 0.1 mm 4 m/S 738 mmHg 85%
    01:00 +1°C° 0.1 mm 4 m/S 738 mmHg 85%
    02:00 +1°C° 0.1 mm 5 m/S 738 mmHg 84%
    03:00 +1°C° 0 mm 5 m/S 738 mmHg 85%
    04:00 +1°C° 0 mm 5 m/S 738 mmHg 87%
    05:00 +1°C° 0 mm 5 m/S 737 mmHg 88%
    06:00 0°C° 0 mm 5 m/S 738 mmHg 89%
    07:00 0°C° 0 mm 4 m/S 738 mmHg 89%
    08:00 0°C° 0 mm 4 m/S 738 mmHg 90%
    09:00 +1°C° 0 mm 5 m/S 738 mmHg 85%
    10:00 +2°C° 0 mm 5 m/S 738 mmHg 80%
    11:00 +3°C° 0 mm 5 m/S 738 mmHg 75%
    12:00 +4°C° 0 mm 6 m/S 738 mmHg 71%
    13:00 +5°C° 0 mm 6 m/S 738 mmHg 67%
    14:00 +7°C° 0 mm 6 m/S 737 mmHg 62%
    15:00 +7°C° 0 mm 5 m/S 737 mmHg 65%
    16:00 +6°C° 0 mm 4 m/S 737 mmHg 67%
    17:00 +7°C° 0 mm 3 m/S 737 mmHg 69%
    18:00 +5°C° 0.1 mm 3 m/S 737 mmHg 73%
    19:00 +5°C° 0.1 mm 4 m/S 737 mmHg 76%
    20:00 +4°C° 0.1 mm 4 m/S 737 mmHg 80%
    21:00 +4°C° 0.3 mm 3 m/S 737 mmHg 81%
    22:00 +4°C° 0.3 mm 3 m/S 736 mmHg 82%
    23:00 +4°C° 0.3 mm 3 m/S 736 mmHg 84%

    22 Februar, Freitag

    Zeit Temperatur Niederschläge Wind Luftdruck Luftfeuchtigkeit
    00:00 +4°C° 0.4 mm 3 m/S 736 mmHg 85%
    01:00 +3°C° 0.4 mm 3 m/S 736 mmHg 86%
    02:00 +3°C° 0.4 mm 4 m/S 736 mmHg 87%
    03:00 +3°C° 0.4 mm 4 m/S 735 mmHg 88%
    04:00 +3°C° 0.4 mm 4 m/S 735 mmHg 90%
    05:00 +3°C° 0.4 mm 4 m/S 735 mmHg 91%
    06:00 +3°C° 0.1 mm 4 m/S 735 mmHg 92%
    07:00 +3°C° 0.1 mm 4 m/S 734 mmHg 93%
    08:00 +3°C° 0.1 mm 3 m/S 734 mmHg 94%
    09:00 +3°C° 0.3 mm 4 m/S 734 mmHg 92%
    10:00 +4°C° 0.3 mm 4 m/S 734 mmHg 90%
    11:00 +4°C° 0.3 mm 4 m/S 734 mmHg 88%
    12:00 +4°C° 0.4 mm 4 m/S 734 mmHg 88%
    13:00 +4°C° 0.4 mm 4 m/S 735 mmHg 88%
    14:00 +3°C° 0.4 mm 4 m/S 735 mmHg 88%
    15:00 -1°C° 0.8 mm 6 m/S 735 mmHg 88%
    16:00 -3°C° 0.8 mm 7 m/S 736 mmHg 89%
    17:00 -6°C° 0.8 mm 9 m/S 737 mmHg 89%
    18:00 -7°C° 0.7 mm 8 m/S 738 mmHg 85%
    19:00 -7°C° 0.7 mm 8 m/S 740 mmHg 81%
    20:00 -8°C° 0.7 mm 7 m/S 742 mmHg 78%
    21:00 -9°C° 0 mm 7 m/S 743 mmHg 74%
    22:00 -10°C° 0 mm 6 m/S 744 mmHg 71%
    23:00 -11°C° 0 mm 6 m/S 745 mmHg 67%
    Mehr zeigen